CAPE
216 104 0 0 0 0 0 0 1 0 0 0 0 0 0 0 0 0 0 2 128 285 330 460 431 224 175 180 232 355 302 323 260 284 542 664 631 651 814 905 708 521 400 307 221 146 87 52 46
0 0 0 0 0 0 0 0 0 0 0 0 0 0 0 16 0 0 0 88 153 223 154 204 263 180 152 139 188 248 262 284 256 204 407 723 731 587 534 628 435 305 187 105 48 18 34 229 560
0 0 0 0 0 0 0 0 0 0 0 0 0 0 5 1 0 0 122 230 190 128 86 89 123 82 62 57 113 174 195 152 140 147 185 526 742 598 527 502 271 106 42 20 109 422 679 810 1065
0 0 0 0 0 0 0 0 0 0 0 0 0 0 0 0 0 55 254 181 81 49 3 137 41 11 10 15 43 73 63 48 54 87 160 285 500 554 561 236 61 17 64 344 598 838 1050 1319 1619
0 0 0 0 0 0 0 0 0 0 0 0 0 0 0 0 104 202 175 47 16 0 0 0 54 33 25 23 45 57 80 151 162 186 227 288 379 378 231 131 49 116 442 732 1045 1291 1699 1955 1987
0 0 0 0 0 0 0 0 0 0 0 0 0 0 0 18 7 106 101 25 39 10 2 9 93 66 79 61 104 176 362 414 408 388 374 324 285 263 269 226 559 818 1156 1221 1412 1909 1990 1843 1786
0 0 0 0 0 0 0 0 0 0 0 0 0 0 0 0 0 83 98 26 37 14 5 1 0 17 159 261 345 453 550 609 658 901 896 677 521 525 726 933 1292 1616 1611 1836 2142 2090 1952 1766 1416
0 0 0 0 0 0 0 0 0 0 0 0 0 0 0 0 74 137 41 0 0 0 0 0 0 0 61 85 512 568 593 641 837 823 829 778 944 1193 1343 1432 1224 1689 2110 2291 2245 2144 1639 107 2349
0 0 0 0 0 0 0 0 0 0 0 0 0 0 0 9 131 0 0 0 0 0 0 0 0 0 23 25 180 622 459 500 862 889 1231 963 481 440 872 1283 1786 1998 2306 2146 1787 683 4 891 2132
0 0 0 0 0 0 0 0 0 0 0 0 0 0 22 147 5 0 0 0 0 0 0 0 0 0 0 94 91 171 95 228 471 502 336 612 333 291 858 1488 2144 2003 1788 94 0 0 0 0 69
0 0 0 0 0 0 0 0 0 0 0 0 0 21 122 41 0 0 0 0 0 0 0 0 0 0 0 0 0 3 39 94 157 126 79 15 334 276 871 1154 192 4 0 0 0 0 0 0 0
0 0 0 0 0 0 0 0 0 0 0 0 0 39 5 0 0 0 0 0 0 0 0 0 0 0 0 0 0 0 0 0 0 0 0 223 738 635 1057 0 0 0 0 0 0 0 0 0 0
0 0 0 0 0 0 0 0 0 0 0 0 0 0 0 0 0 0 0 0 0 0 0 0 0 0 0 0 0 0 0 0 0 0 122 1145 93 89 0 0 0 0 0 0 0 0 0 0 0
0 0 0 0 0 0 0 0 0 0 0 0 0 0 0 0 0 0 0 0 0 0 0 0 0 0 0 0 0 0 0 0 0 104 948 920 0 0 0 0 0 0 0 0 0 0 0 0 0
0 0 0 0 0 0 0 0 0 0 0 0 0 0 0 0 0 0 0 0 0 0 0 0 0 0 0 0 0 0 0 0 21 696 1045 105 0 0 0 0 0 0 0 0 0 0 0 0 0
0 0 0 0 0 0 0 0 0 0 0 0 0 0 0 0 0 0 0 0 0 0 0 0 0 0 0 0 0 0 0 327 633 1070 316 0 0 0 0 0 0 0 0 0 0 0 0 0 0
0 0 0 0 0 0 0 0 0 0 0 0 0 0 0 0 0 0 0 0 0 0 0 0 0 0 0 0 28 210 651 929 631 321 3 0 0 0 0 0 0 0 0 0 0 0 0 0 0
0 0 0 0 0 0 0 0 0 0 0 0 0 0 0 0 0 0 0 0 0 0 0 0 0 0 0 10 904 1080 1111 724 305 80 0 0 0 0 0 0 0 0 0 0 0 0 0 0 0
0 0 0 0 0 0 0 0 0 0 0 0 0 0 0 0 0 0 0 0 0 0 0 0 6 34 0 662 1390 1206 1363 561 125 0 0 0 0 0 0 0 0 0 0 0 0 0 0 0 0
0 0 0 0 0 0 0 0 0 0 0 0 0 0 0 0 0 0 0 0 0 0 0 0 6 92 114 811 1172 1127 749 116 0 0 0 0 0 0 0 0 0 0 0 0 0 0 0 0 0
0 0 0 0 0 0 0 0 0 0 0 0 0 0 0 0 0 0 0 0 0 0 0 0 0 92 359 720 470 73 1 0 0 0 0 0 0 0 0 0 0 0 0 0 0 0 0 0 0
0 0 0 0 0 0 0 0 0 0 0 0 0 0 0 0 0 0 0 0 0 0 0 4 18 74 445 1192 1042 736 1011 303 9 0 0 0 0 0 0 0 0 0 0 0 0 0 0 0 0
0 0 0 0 0 0 0 0 0 0 0 0 0 0 0 0 0 0 0 0 0 0 0 8 54 241 911 1503 1403 1153 1218 611 0 0 0 0 0 0 0 0 0 0 0 0 0 0 0 0 0
0 0 0 0 0 0 0 0 0 0 0 0 0 0 0 0 0 0 0 0 0 0 0 108 256 438 1136 1563 1679 1522 1315 1 0 0 0 0 0 0 0 0 0 0 0 0 0 0 0 0 0
0 0 0 0 0 0 0 0 0 0 0 0 0 0 0 0 0 0 0 0 0 0 92 426 627 721 1055 1438 1624 1618 506 0 0 0 0 0 0 0 0 0 0 0 0 0 0 0 0 0 0
0 0 0 0 0 0 0 0 0 0 0 0 0 0 0 0 0 0 0 0 0 2 208 547 864 802 933 1174 962 502 0 0 0 0 0 0 0 0 0 0 0 0 0 0 0 0 0 0 0
0 0 0 0 0 0 0 0 0 0 0 0 0 0 0 0 16 0 0 0 0 77 435 693 949 954 1021 235 561 96 0 0 0 0 0 0 0 0 0 0 0 0 0 0 0 0 0 0 0
0 0 0 0 0 0 0 0 0 0 0 0 0 0 0 0 323 0 0 0 21 293 544 808 921 885 227 34 260 120 4 0 0 0 0 0 0 0 0 0 0 0 0 0 0 0 0 0 0
0 0 0 0 0 0 0 0 0 0 0 0 0 0 0 0 185 494 143 43 110 278 682 940 597 197 98 186 766 236 4 0 0 0 0 0 0 0 0 0 0 0 0 0 0 0 0 0 0
0 0 0 0 0 0 0 0 0 0 0 0 0 0 0 0 5 666 502 388 317 558 869 831 491 75 105 863 970 326 3 0 0 0 0 0 0 0 0 0 0 0 0 0 0 0 0 0 0
CIN
-713 -738 0 0 0 0 0 0 -156 0 0 0 0 0 0 0 0 0 0 -106 -439 -251 -190 -106 -100 -195 -220 -205 -174 -121 -138 -128 -160 -155 -61 -27 -34 -29 -8 -5 -23 -54 -83 -106 -135 -166 -215 -243 -265
0 0 0 0 0 0 0 0 0 0 0 0 0 0 0 -332 0 0 0 -478 -388 -278 -311 -247 -183 -230 -243 -245 -205 -171 -163 -152 -168 -202 -110 -17 -14 -40 -52 -38 -79 -115 -162 -215 -269 -320 -285 -150 -77
0 0 0 0 0 0 0 0 0 0 0 0 0 0 -101 -14 0 0 -407 -349 -344 -360 -405 -382 -306 -339 -344 -340 -270 -216 -200 -231 -240 -234 -210 -60 -14 -40 -55 -66 -139 -235 -299 -314 -211 -89 -68 -58 -51
0 0 0 0 0 0 0 0 0 0 0 0 0 0 0 0 0 -473 -311 -351 -432 -444 -150 -288 -399 -452 -452 -446 -371 -310 -326 -343 -327 -286 -222 -150 -74 -61 -62 -158 -284 -333 -267 -123 -89 -70 -56 -51 -54
0 0 0 0 0 0 0 0 0 0 0 0 0 0 0 0 -429 -401 -357 -436 -469 0 0 -1 -364 -390 -407 -416 -365 -341 -296 -229 -217 -199 -173 -141 -98 -96 -151 -202 -269 -204 -112 -81 -54 -43 -34 -40 -52
0 0 0 0 0 0 0 0 0 0 0 0 0 0 0 -444 -261 -450 -428 -515 -472 -519 -139 -459 -296 -310 -292 -316 -265 -204 -135 -124 -124 -120 -114 -122 -130 -139 -136 -150 -102 -79 -49 -45 -45 -35 -38 -58 -80
0 0 0 0 0 0 0 0 0 0 0 0 0 0 0 0 0 -451 -434 -516 -480 -501 -515 -530 -194 -218 -217 -187 -170 -152 -130 -119 -108 -71 -72 -94 -120 -125 -99 -80 -55 -40 -35 -32 -29 -36 -49 -63 -110
0 0 0 0 0 0 0 0 0 0 0 0 0 0 0 0 -435 -388 -493 0 0 0 0 0 0 0 -312 -293 -169 -165 -162 -148 -110 -109 -103 -114 -103 -80 -64 -66 -87 -47 -30 -27 -32 -29 -57 -260 -45
0 0 0 0 0 0 0 0 0 0 0 0 0 0 0 -127 -413 0 0 0 0 0 0 0 0 0 -399 -381 -293 -189 -205 -190 -143 -139 -99 -142 -238 -246 -161 -105 -48 -32 -24 -36 -41 -120 -41 -147 -36
0 0 0 0 0 0 0 0 0 0 0 0 0 0 -186 -480 -613 0 0 0 0 0 0 0 0 0 0 -337 -367 -344 -373 -316 -263 -263 -297 -245 -307 -323 -177 -103 -35 -37 -51 -98 0 0 0 0 -57
0 0 0 0 0 0 0 0 0 0 0 0 0 -582 -534 -583 0 0 0 0 0 0 0 0 0 0 0 0 0 -74 -455 -412 -389 -382 -383 -129 -297 -342 -207 -144 -176 -11 0 0 0 0 0 0 0
0 0 0 0 0 0 0 0 0 0 0 0 0 -645 -240 0 0 0 0 0 0 0 0 0 0 0 0 0 0 0 0 0 0 0 0 -338 -254 -275 -182 0 0 0 0 0 0 0 0 0 0
0 0 0 0 0 0 0 0 0 0 0 0 0 0 0 0 0 0 0 0 0 0 0 0 0 0 0 0 0 0 0 0 0 0 -392 -199 -197 -252 0 0 0 0 0 0 0 0 0 0 0
0 0 0 0 0 0 0 0 0 0 0 0 0 0 0 0 0 0 0 0 0 0 0 0 0 0 0 0 0 0 0 0 0 -333 -215 -236 0 0 0 0 0 0 0 0 0 0 0 0 0
0 0 0 0 0 0 0 0 0 0 0 0 0 0 0 0 0 0 0 0 0 0 0 0 0 0 0 0 0 0 0 0 -405 -264 -209 -402 0 0 0 0 0 0 0 0 0 0 0 0 0
0 0 0 0 0 0 0 0 0 0 0 0 0 0 0 0 0 0 0 0 0 0 0 0 0 0 0 0 0 0 0 -407 -325 -248 -369 0 0 0 0 0 0 0 0 0 0 0 0 0 0
0 0 0 0 0 0 0 0 0 0 0 0 0 0 0 0 0 0 0 0 0 0 0 0 0 0 0 0 -267 -475 -397 -342 -386 -442 -35 0 0 0 0 0 0 0 0 0 0 0 0 0 0
0 0 0 0 0 0 0 0 0 0 0 0 0 0 0 0 0 0 0 0 0 0 0 0 0 0 0 -36 -395 -367 -363 -426 -526 -563 0 0 0 0 0 0 0 0 0 0 0 0 0 0 0
0 0 0 0 0 0 0 0 0 0 0 0 0 0 0 0 0 0 0 0 0 0 0 0 -163 -658 0 -433 -253 -289 -268 -446 -580 0 0 0 0 0 0 0 0 0 0 0 0 0 0 0 0
0 0 0 0 0 0 0 0 0 0 0 0 0 0 0 0 0 0 0 0 0 0 0 0 -155 -664 -569 -360 -323 -336 -410 -548 0 0 0 0 0 0 0 0 0 0 0 0 0 0 0 0 0
0 0 0 0 0 0 0 0 0 0 0 0 0 0 0 0 0 0 0 0 0 0 0 0 0 -646 -496 -397 -527 -675 -49 0 0 0 0 0 0 0 0 0 0 0 0 0 0 0 0 0 0
0 0 0 0 0 0 0 0 0 0 0 0 0 0 0 0 0 0 0 0 0 0 0 -763 -739 -736 -555 -423 -412 -486 -298 -435 -975 0 0 0 0 0 0 0 0 0 0 0 0 0 0 0 0
0 0 0 0 0 0 0 0 0 0 0 0 0 0 0 0 0 0 0 0 0 0 0 -809 -903 -732 -530 -434 -409 -384 -363 -445 0 0 0 0 0 0 0 0 0 0 0 0 0 0 0 0 0
0 0 0 0 0 0 0 0 0 0 0 0 0 0 0 0 0 0 0 0 0 0 -280 -880 -842 -726 -543 -463 -398 -368 -360 -646 0 0 0 0 0 0 0 0 0 0 0 0 0 0 0 0 0
0 0 0 0 0 0 0 0 0 0 0 0 0 0 0 0 0 0 0 0 0 0 -983 -845 -778 -722 -598 -502 -421 -434 -662 -57 0 0 0 0 0 0 0 0 0 0 0 0 0 0 0 0 0
0 0 0 0 0 0 0 0 0 0 0 0 0 0 0 0 0 0 0 0 0 -375 -934 -809 -725 -695 -600 -562 -623 -740 -18 0 0 0 0 0 0 0 0 0 0 0 0 0 0 0 0 0 0
0 0 0 0 0 0 0 0 0 0 0 0 0 0 0 0 -100 0 0 0 0 -932 -888 -777 -685 -643 -561 -975 -767 -1004 0 0 0 0 0 0 0 0 0 0 0 0 0 0 0 0 0 0 0
0 0 0 0 0 0 0 0 0 0 0 0 0 0 0 0 -583 0 0 0 -917 -836 -759 -668 -649 -657 -958 -1224 -858 -976 -138 0 0 0 0 0 0 0 0 0 0 0 0 0 0 0 0 0 0
0 0 0 0 0 0 0 0 0 0 0 0 0 0 0 0 -288 -585 -840 -863 -732 -683 -655 -633 -740 -958 -1110 -971 -691 -848 -131 0 0 0 0 0 0 0 0 0 0 0 0 0 0 0 0 0 0
0 0 0 0 0 0 0 0 0 0 0 0 0 0 0 0 -43 -500 -706 -780 -749 -661 -615 -673 -750 -1041 -976 -711 -646 -823 -137 0 0 0 0 0 0 0 0 0 0 0 0 0 0 0 0 0 0
Wind_Speed
6 5 1 3 4 5 4 5 4 3 3 1 4 2 8 3 7 5 4 6 16 13 8 11 15 16 15 14 13 12 11 11 11 11 11 11 11 10 9 8 7 7 6 5 5 6 7 8 9
4 5 1 2 5 5 4 4 7 4 2 6 6 4 6 3 3 7 7 9 13 10 6 6 15 15 14 13 13 12 11 10 10 10 9 9 8 7 6 5 5 4 3 4 4 5 7 8 8
2 2 3 4 3 2 4 1 4 3 1 3 4 5 4 3 6 8 8 13 11 7 6 7 15 14 14 13 12 11 10 9 9 9 8 8 7 5 4 3 2 1 2 3 4 5 7 8 8
3 3 4 4 1 4 4 5 4 4 4 6 3 6 4 2 11 8 13 12 11 7 5 11 14 14 13 13 12 11 11 10 10 9 8 8 7 6 4 3 3 2 2 2 4 5 6 7 6
4 4 3 2 3 4 5 3 5 7 2 4 3 4 5 6 11 18 15 11 12 7 6 8 15 15 14 14 13 12 12 10 10 9 8 7 6 5 5 4 4 4 4 5 6 6 6 7 8
3 3 4 2 3 4 4 5 7 4 3 2 5 7 2 11 15 13 12 11 9 11 7 7 14 14 13 13 12 11 9 9 8 7 6 5 5 5 5 4 5 6 7 8 8 7 8 10 11
5 4 3 3 4 4 3 5 8 7 6 1 6 5 3 7 9 13 10 7 7 6 6 5 6 10 13 12 11 10 9 8 8 6 6 6 5 5 5 5 6 7 7 7 9 10 11 12 12
5 5 4 2 0 5 1 1 4 10 2 5 6 7 6 10 12 11 9 6 5 4 5 6 5 5 5 6 12 11 10 9 7 7 7 7 6 5 5 5 4 6 6 6 8 9 10 10 12
3 5 3 5 3 5 6 6 3 2 11 2 4 6 12 18 14 12 9 4 3 4 4 5 6 6 6 5 6 9 11 10 10 9 9 6 3 4 4 4 4 4 5 7 7 9 12 12 14
5 4 9 6 4 4 4 5 10 6 10 1 6 12 19 19 16 15 12 10 6 7 7 6 6 6 6 6 5 5 5 4 5 5 5 4 5 4 4 4 3 2 4 10 10 12 13 9 4
5 6 6 7 11 10 3 6 7 11 7 9 21 20 22 21 16 15 13 15 18 11 7 9 7 6 7 5 4 3 3 3 3 5 4 4 3 3 2 1 3 3 5 4 5 7 5 6 4
3 9 8 10 10 8 6 6 7 15 7 15 22 25 22 22 18 16 15 13 8 10 12 10 9 7 7 4 4 4 4 3 3 4 3 3 2 2 3 3 3 4 2 5 5 4 5 6 6
4 6 6 14 10 12 10 10 5 15 1 15 16 19 21 20 19 16 17 14 12 12 12 12 11 10 9 6 4 4 5 4 4 4 5 3 3 4 4 4 4 3 3 4 5 5 5 5 5
4 5 8 10 5 8 12 3 8 7 9 17 17 17 18 20 20 15 12 14 14 15 14 13 14 12 9 8 6 6 4 5 4 3 4 6 5 5 5 4 4 4 3 4 5 5 5 5 4
5 7 7 3 3 3 10 4 15 7 14 18 19 16 15 18 16 18 18 15 17 15 18 16 15 13 11 12 9 5 5 5 5 5 5 5 5 5 6 5 4 3 3 6 5 5 5 5 4
6 4 3 5 6 3 11 13 8 18 20 18 20 17 17 17 21 18 18 17 16 14 15 14 15 16 14 12 10 7 7 4 5 5 5 7 8 7 6 5 4 2 3 4 5 3 4 5 4
7 2 2 8 5 4 5 7 5 14 19 20 19 19 19 16 13 15 17 19 17 17 15 14 16 16 16 12 9 8 9 6 6 7 6 7 8 8 7 5 3 4 4 4 4 4 3 3 3
3 4 4 5 3 2 8 11 8 18 21 23 20 18 19 19 25 21 17 17 15 16 17 16 15 16 14 8 6 4 5 5 5 5 5 7 5 8 7 6 5 4 5 4 4 5 5 4 3
2 3 5 7 8 3 4 8 14 21 14 15 16 17 19 22 24 18 12 15 11 15 16 17 15 11 9 4 5 2 5 4 3 3 7 7 7 6 7 6 5 4 5 5 4 3 4 5 2
3 4 10 9 5 4 6 6 5 11 22 19 20 18 21 22 16 16 10 15 17 19 18 17 17 12 13 10 6 4 5 3 3 4 4 6 7 9 8 9 6 6 5 6 3 3 2 3 5
4 4 7 10 6 3 2 6 3 6 8 10 9 18 19 23 23 20 14 19 19 21 20 19 18 17 15 7 6 4 6 4 4 3 4 6 8 8 8 9 8 7 5 5 4 4 3 4 3
6 8 11 6 2 3 3 5 5 5 11 15 21 17 21 23 20 19 20 16 20 20 18 19 18 17 13 15 11 15 12 10 5 6 5 7 9 9 9 9 9 7 5 6 4 4 4 2 4
11 3 7 4 3 4 4 3 9 3 5 11 20 24 22 26 24 22 22 23 21 17 18 18 17 17 17 18 18 16 16 9 6 6 10 8 6 9 10 10 9 8 5 6 7 5 6 2 3
5 3 5 5 4 2 7 7 7 5 9 5 6 12 18 19 22 24 24 25 13 15 17 17 21 20 20 20 19 17 15 12 11 9 9 6 3 3 8 10 9 8 8 7 6 6 7 5 5
5 7 4 6 6 7 2 4 10 8 8 9 12 14 12 15 18 21 22 21 20 20 21 18 21 22 22 20 15 12 11 14 17 15 10 11 8 5 8 10 10 8 7 7 7 7 7 6 5
2 8 7 7 5 7 2 5 8 10 10 9 11 12 15 15 12 22 26 24 25 26 24 24 23 22 22 17 12 10 12 10 10 14 11 10 10 9 10 10 11 11 10 8 7 5 5 6 5
3 3 5 2 2 3 4 7 9 6 8 8 10 10 10 8 7 10 9 17 21 21 23 25 23 21 17 11 11 11 12 12 11 12 12 11 9 8 12 13 12 11 11 10 9 6 6 6 5
6 5 1 3 3 5 5 3 6 8 9 8 10 8 8 7 9 8 10 12 16 19 20 18 18 20 14 12 11 11 12 11 11 12 13 13 10 10 11 12 13 12 11 11 9 6 6 7 5
1 3 4 5 6 6 3 7 8 8 8 9 9 8 6 6 7 4 6 7 15 14 16 16 15 14 11 14 13 13 12 13 13 13 13 12 9 12 13 14 14 13 12 12 9 8 8 8 7
3 5 5 6 5 3 4 8 3 5 9 8 10 15 16 11 8 8 6 5 8 15 16 18 17 16 15 12 13 13 13 14 13 13 13 13 13 12 13 13 14 13 13 13 12 12 10 11 9
Wind_Direction
143 166 171 66 52 61 345 323 281 204 359 300 119 184 173 97 156 202 125 133 134 145 152 156 150 141 140 138 136 129 129 128 122 119 112 107 109 109 105 101 98 91 81 66 47 24 10 13 24
150 162 35 66 77 48 306 280 5 328 153 104 78 67 44 27 57 113 111 136 127 130 126 142 146 140 140 140 139 137 137 135 130 126 125 123 121 119 116 110 103 89 67 40 22 9 2 3 12
182 288 86 100 112 158 182 287 70 360 243 312 114 70 97 132 95 141 126 130 113 109 128 160 145 140 142 142 142 143 142 139 135 133 135 140 143 143 141 131 114 61 19 8 3 355 351 352 351
159 18 31 75 344 256 206 216 186 161 324 23 89 65 53 237 138 132 125 122 116 120 138 148 143 142 145 145 146 148 149 148 146 146 150 160 168 176 188 203 220 241 270 322 340 345 345 339 323
29 51 52 96 245 253 244 247 189 132 96 355 334 79 90 124 106 130 135 132 134 132 155 146 150 153 153 152 154 156 157 155 155 159 166 174 185 202 223 242 263 294 318 337 346 347 339 320 315
46 99 53 270 240 255 249 225 146 100 98 107 84 93 63 126 133 141 140 142 147 154 159 158 159 158 157 159 160 160 159 162 167 172 179 189 210 232 254 280 305 319 338 350 348 345 343 332 327
121 85 206 266 280 311 258 190 129 127 123 143 162 84 84 146 151 139 133 126 143 152 140 141 153 166 166 165 167 168 171 180 189 196 203 215 229 245 271 300 316 332 352 350 345 351 345 344 345
99 87 350 231 57 286 130 1 150 114 138 125 163 144 185 180 150 120 114 111 126 151 155 152 158 155 160 173 178 180 187 197 203 208 211 220 235 251 277 294 320 337 344 345 343 346 352 22 67
123 54 275 268 184 224 182 105 329 95 134 239 213 132 152 142 130 122 123 105 127 171 174 164 164 171 176 182 193 190 195 205 214 217 222 220 236 249 249 259 284 338 350 353 22 27 36 65 86
111 124 219 247 248 252 117 101 155 122 161 301 90 91 131 139 146 151 164 171 179 191 193 184 180 180 175 189 194 192 209 211 216 214 213 218 230 224 240 246 251 33 31 64 61 52 53 66 49
174 185 231 263 228 257 281 138 162 128 216 219 153 149 152 154 163 169 174 180 186 191 187 187 189 186 184 209 186 199 205 223 229 224 219 229 237 248 231 31 34 61 80 64 61 59 49 84 91
165 236 184 257 230 203 202 140 165 176 224 165 160 159 156 164 171 176 178 190 179 183 191 185 191 187 202 207 191 195 194 218 233 238 233 238 214 173 129 116 118 95 68 89 71 64 62 64 96
170 228 222 247 255 206 156 185 173 200 311 140 151 158 166 171 177 183 183 181 183 187 191 192 186 194 200 209 201 193 206 204 211 219 214 195 136 133 133 117 108 100 80 82 63 59 63 56 94
236 210 254 278 270 165 161 120 128 190 161 148 167 169 179 180 184 181 184 186 184 184 191 187 194 195 190 201 197 204 201 202 201 218 213 165 155 141 119 119 108 104 112 93 93 75 61 61 80
281 319 340 292 120 100 102 108 224 155 161 164 179 185 179 193 188 192 189 190 186 195 190 185 192 191 190 194 200 198 214 185 186 177 164 148 132 137 126 123 107 113 110 101 89 64 59 54 51
8 42 27 273 117 230 130 236 228 164 157 181 186 190 196 198 199 196 193 196 191 187 193 190 192 192 194 193 193 197 211 187 177 165 154 150 151 138 113 113 114 151 99 90 88 73 58 56 50
1 253 292 327 198 101 132 253 207 177 171 183 191 195 200 206 215 208 202 196 189 188 192 192 195 197 198 194 193 188 183 162 170 150 163 160 146 143 128 126 136 122 94 72 87 61 84 57 45
246 347 318 276 295 121 198 237 186 183 185 188 192 195 205 208 215 212 207 203 194 190 190 192 196 199 198 187 171 149 158 145 151 155 147 137 143 133 131 123 125 120 98 75 73 83 40 60 75
256 218 264 255 258 248 251 221 199 198 195 189 190 202 210 218 215 212 211 216 188 195 191 191 187 187 173 152 153 137 171 151 133 131 132 143 137 131 133 124 127 122 110 123 120 91 70 46 20
237 308 294 291 329 160 304 287 227 185 206 201 193 199 214 226 218 215 201 207 198 196 195 188 188 174 182 179 181 152 145 114 115 124 153 148 161 153 146 139 139 128 113 101 94 100 103 51 6
250 209 256 231 337 318 28 321 207 192 199 219 233 222 219 219 214 211 203 205 205 200 189 190 187 182 184 149 116 89 82 81 114 156 152 182 167 154 156 145 140 130 126 125 115 109 104 129 33
277 210 231 243 135 218 83 272 300 201 230 221 223 217 224 224 223 223 216 210 210 208 190 190 187 183 174 173 169 167 181 173 199 160 151 178 170 165 158 150 141 134 132 120 113 112 116 116 121
237 155 206 209 158 80 334 89 267 331 265 230 226 223 224 224 221 215 213 216 210 189 192 190 180 179 179 181 188 190 182 177 146 147 157 164 186 178 161 151 142 138 129 124 118 112 106 107 127
253 133 43 37 100 61 237 162 271 238 223 284 264 199 224 229 227 223 213 216 180 185 186 186 180 187 189 195 198 199 185 155 144 149 171 162 180 177 172 153 144 141 133 137 132 127 117 122 100
86 62 334 341 353 228 286 66 242 258 243 227 268 282 245 223 227 223 213 205 191 186 185 183 184 191 196 199 190 181 170 161 157 159 168 161 165 204 187 154 143 146 141 140 136 137 137 137 128
189 151 154 227 225 247 1 247 247 226 267 252 249 255 274 267 218 220 216 202 194 188 185 184 191 195 195 195 177 146 156 165 169 163 165 180 183 182 174 155 150 149 142 141 141 140 132 130 129
277 207 194 155 52 68 225 294 301 278 290 308 315 350 330 285 262 242 233 204 194 186 189 187 190 198 191 173 158 155 161 160 169 161 169 181 178 179 172 157 150 151 148 147 149 144 133 142 134
162 176 24 14 258 267 284 264 234 293 290 301 319 331 317 320 326 305 160 163 183 186 189 192 192 195 187 170 173 161 165 166 161 162 175 184 173 171 168 157 155 152 151 149 150 142 141 137 135
295 259 63 120 147 187 222 264 223 246 260 253 277 286 257 267 255 255 311 194 186 186 184 189 192 188 177 177 173 165 164 168 163 171 175 182 169 168 175 163 161 157 157 160 156 144 145 134 134
231 232 157 136 252 216 164 259 261 295 307 323 324 325 326 303 235 207 191 182 202 189 185 194 197 193 194 177 169 170 167 172 173 175 175 165 175 171 172 170 164 163 165 166 154 154 148 145 149